Puigmal 2600, France 16 day weather forecast

Slopes altitude range 1800 m - 2700m

Number of lifts: 13 Pistes: 32km

In some cases the lift and piste totals shown are for the ski domain (e.g. Three Valleys) rather than individual resort (e.g. Courchevel)

Overview

The 16 day weather forecast is fully updated 4 times every day.

    • Sat 20 APR 2019
    • Sat 20
    • 5C 15C
    • Sun 21 APR 2019
    • Sun 21
    • 2C 7C
    • Mon 22 APR 2019
    • Mon 22
    • 3C 8C
    • Tue 23 APR 2019
    • Tue 23
    • 2C 8C
    • Wed 24 APR 2019
    • Wed 24
    • 0C 5C
    • Thu 25 APR 2019
    • Thu 25
    • 1C 4C
    • Fri 26 APR 2019
    • Fri 26
    • -3C 3C
    • Sat 27 APR 2019
    • Sat 27
    • -2C 9C
    • Sun 28 APR 2019
    • Sun 28
    • 7C 17C
    • Mon 29 APR 2019
    • Mon 29
    • 10C 21C
    • Tue 30 APR 2019
    • Tue 30
    • 11C 23C
    • Wed 01 MAY 2019
    • Wed 01
    • 12C 19C
    • Thu 02 MAY 2019
    • Thu 02
    • 12C 22C
    • Fri 03 MAY 2019
    • Fri 03
    • 10C 22C
    • Sat 04 MAY 2019
    • Sat 04
    • 11C 23C
    • Sun 05 MAY 2019
    • Sun 05
    • 13C 24C

Date:

Time Type 0°C level Temp Chill Snow Cloud Speed Gust Dir Press
3:00 3444m 4°C 4_3 0cm 98% 3mph 4mph 1023mB
6:00 3271m 3°C 3_2 0cm 99% 2mph 3mph 1023mB
9:00 3038m 5°C 5_1 0cm 100% 1mph 1mph 1022mB
12:00 2981m 15°C 15_2 0cm 92% 2mph 3mph 1021mB
15:00 2704m 14°C 14_3 0cm 100% 3mph 4mph 1020mB
18:00 2493m 14°C 14_4 0cm 100% 4mph 5mph 1020mB
21:00 2336m 3°C 3_4 0cm 100% 4mph 6mph 1021mB
0:00 2280m 2°C 2_3 7cm 100% 3mph 4mph 1020mB
3:00 2172m 2°C 2_4 4cm 100% 4mph 5mph 1018mB
6:00 2252m 2°C 2_3 5cm 100% 3mph 4mph 1017mB
9:00 2317m 2°C 2_4 0cm 93% 4mph 5mph 1016mB
12:00 2488m 7°C 7_4 0cm 94% 4mph 5mph 1014mB
15:00 2616m 9°C 9_4 0cm 83% 4mph 5mph 1012mB
18:00 2544m 9°C 9_4 0cm 92% 4mph 5mph 1011mB
21:00 2500m 2°C 2_3 0cm 97% 3mph 4mph 1011mB
0:00 2438m 1°C 1_4 0cm 88% 4mph 5mph 1009mB
3:00 2567m 1°C 1_4 0cm 95% 4mph 5mph 1007mB
6:00 2414m 1°C 1_4 0cm 96% 4mph 4mph 1005mB
9:00 2477m 3°C 3_3 0cm 100% 3mph 3mph 1004mB
12:00 2555m 8°C 8_2 0cm 100% 2mph 3mph 1002mB
15:00 2544m 6°C 6_2 0cm 100% 2mph 3mph 1001mB
18:00 2548m 6°C 6_5 0cm 100% 5mph 9mph 1000mB
21:00 2553m 3°C 3_4 0cm 100% 4mph 7mph 1001mB
0:00 2546m 3°C 3_4 0cm 100% 4mph 5mph 1000mB
3:00 2475m 2°C 2_4 0cm 100% 4mph 5mph 998mB
6:00 2455m 2°C 2_5 0cm 96% 5mph 8mph 998mB
9:00 2470m 2°C 2_8 0cm 92% 8mph 12mph 998mB
12:00 2531m 8°C 8_10 0cm 93% 10mph 14mph 998mB
15:00 2485m 8°C 8_10 0cm 86% 10mph 14mph 997mB
18:00 2459m 8°C 8_7 0cm 73% 7mph 10mph 999mB
21:00 2349m 3°C 3_7 0cm 96% 7mph 11mph 1002mB
0:00 2227m 1°C 1_6 3cm 92% 6mph 9mph 1003mB
3:00 1767m -1°C -1_7 0cm 62% 7mph 11mph 1003mB
6:00 1819m -1°C -1_8 0cm 49% 8mph 19mph 1005mB
9:00 1974m 0°C 0_12 0cm 16% 12mph 27mph 1006mB
12:00 2126m 5°C 5_12 0cm 9% 12mph 22mph 1006mB
15:00 2198m 6°C 6_11 0cm 3% 11mph 20mph 1006mB
18:00 2087m 6°C 6_10 0cm 25% 10mph 20mph 1007mB
21:00 1774m -1°C -1_7 0cm 1% 7mph 12mph 1010mB
0:00 1833m -1°C -1_7 0cm 22% 7mph 10mph 1010mB
3:00 2000m 0°C 0_10 1cm 99% 10mph 20mph 1009mB
6:00 2109m 0°C 0_10 1cm 99% 10mph 21mph 1009mB
9:00 2025m 1°C 1_10 2cm 100% 10mph 17mph 1010mB
12:00 2099m 4°C 4_12 3cm 94% 12mph 23mph 1010mB
15:00 2203m 5°C 5_10 1cm 51% 10mph 17mph 1011mB
18:00 1949m 5°C 5_3 2cm 65% 3mph 5mph 1014mB
21:00 1595m -2°C -2_7 2cm 95% 7mph 11mph 1019mB
0:00 1059m -5°C -5_6 2cm 72% 6mph 7mph 1021mB
3:00 1065m -5°C -5_6 0cm 78% 6mph 7mph 1022mB
6:00 1317m -6°C -6_8 0cm 52% 8mph 14mph 1023mB
9:00 1780m -3°C -3_10 0cm 43% 10mph 18mph 1024mB
12:00 2009m 3°C 3_10 0cm 39% 10mph 14mph 1024mB
15:00 2080m 4°C 4_9 0cm 17% 9mph 12mph 1025mB
18:00 1835m 4°C 4_9 0cm 18% 9mph 13mph 1027mB
21:00 1292m -4°C -4_9 0cm 31% 9mph 16mph 1030mB
0:00 1273m -4°C -4_10 0cm 21% 10mph 17mph 1030mB
3:00 1275m -4°C -4_10 0cm 16% 10mph 16mph 1030mB
6:00 1487m -4°C -4_10 0cm 10% 10mph 16mph 1030mB
9:00 2357m -2°C -2_11 0cm 0% 11mph 16mph 1028mB
12:00 2867m 9°C 9_10 0cm 0% 10mph 14mph 1026mB
15:00 2892m 15°C 15_13 0cm 0% 13mph 19mph 1024mB
18:00 2960m 15°C 15_9 0cm 0% 9mph 17mph 1025mB
21:00 3066m 8°C 8_9 0cm 0% 9mph 18mph 1027mB
0:00 3119m 7°C 7_7 0cm 0% 7mph 17mph 1026mB
3:00 3153m 6°C 6_6 0cm 0% 6mph 10mph 1025mB
6:00 3375m 5°C 5_6 0cm 0% 6mph 12mph 1024mB
9:00 3414m 7°C 7_10 0cm 0% 10mph 17mph 1022mB
12:00 3368m 17°C 17_12 0cm 0% 12mph 17mph 1020mB
15:00 3378m 17°C 17_10 0cm 0% 10mph 14mph 1019mB
18:00 3473m 18°C 18_6 0cm 0% 6mph 14mph 1019mB
21:00 3606m 10°C 10_7 0cm 0% 7mph 11mph 1021mB
0:00 3518m 9°C 9_5 0cm 0% 5mph 7mph 1020mB
3:00 3401m 8°C 8_5 0cm 0% 5mph 6mph 1019mB
6:00 3377m 8°C 8_4 0cm 0% 4mph 6mph 1018mB
9:00 3356m 10°C 10_6 0cm 0% 6mph 10mph 1017mB
12:00 3347m 21°C 21_7 0cm 0% 7mph 8mph 1015mB
15:00 3295m 21°C 21_7 0cm 0% 7mph 7mph 1013mB
18:00 3260m 21°C 21_4 0cm 0% 4mph 5mph 1013mB
21:00 3352m 12°C 12_4 0cm 0% 4mph 5mph 1014mB
0:00 3308m 12°C 12_4 0cm 0% 4mph 5mph 1014mB
Afternoon 0mm 0 3202m 23°C 23_9 0cm 10% 9mph 10mph 1009mB
Morning 0mm 0 3116m 14°C 14_9 0cm 80% 9mph 18mph 1007mB
Afternoon 0.104167mm 0 2961m 19°C 19_11 0cm 85% 11mph 14mph 1005mB
Morning 0mm 0 3093m 14°C 14_6 0cm 70% 6mph 12mph 1005mB
Afternoon 0.0104167mm 0 2969m 22°C 22_9 0cm 79% 9mph 14mph 1006mB
Morning 0.161458mm 1.9375 2987m 11°C 11_4 0cm 42% 4mph 6mph 1009mB
Afternoon 0.00520833mm 0.0625 2857m 22°C 22_8 0cm 30% 8mph 8mph 1010mB
Morning 0.00520833mm 0.0625 3198m 12°C 12_5 0cm 21% 5mph 6mph 1011mB
Afternoon 0mm 0 3096m 23°C 23_6 0cm 4% 6mph 5mph 1011mB
Morning 0.0520833mm 0.625 3186m 13°C 13_4 0cm 81% 4mph 5mph 1011mB
Afternoon 0.00520833mm 0 3089m 24°C 24_7 0cm 52% 7mph 7mph 1010mB
Morning 0.65625mm 7.875 3107m 12°C 12_5 0cm 23% 5mph 5mph 1013mB

16 day outlook at a glance

Forecast issued: 20/04/2019 06:22:48

Chat

Your comments and questions. In a resort? Let us know what it's like!


Characters left 250

For terms and conditions see Readers Comments on the Cookie and privacy policy page.